Location: Crescent
(42.8242°N, 73.7329°W)
Time: 00:07:02
(UTC+00:00)

Courier 1B - Visible Passes

Search period start: 17 February 2026 00:00
Search period end: 27 February 2026 00:00
Orbit: 962 x 1208 km, 28.3° (Epoch: 16 February)

Date Brightness Start Highest point End Pass type
(mag) Time Alt. Az. Time Alt. Az. Time Alt. Az.
17 Feb 9.5 00:12:20 10° SSW 00:16:25 16° SSE 00:17:54 15° SE visible
17 Feb 9.9 02:03:32 10° SW 02:04:47 14° SW 02:04:47 14° SW visible
17 Feb 9.7 23:20:12 10° S 23:22:46 12° SSE 23:25:24 10° SE visible
18 Feb 9.3 01:10:06 10° SW 01:14:23 22° S 01:14:23 22° S visible
19 Feb 9.2 00:16:52 10° SSW 00:22:01 21° SSE 00:23:56 19° SE visible
19 Feb 9.8 02:09:09 10° SW 02:10:50 16° SW 02:10:50 16° SW visible
19 Feb 9.5 23:23:54 10° SSW 23:28:19 17° SSE 23:32:53 10° ESE visible
20 Feb 9.1 01:15:33 10° SW 01:20:22 25° S 01:20:22 25° S visible
21 Feb 9.1 00:22:06 10° SW 00:27:40 24° S 00:29:53 21° SSE visible
21 Feb 9.8 02:15:04 10° WSW 02:16:47 16° SW 02:16:47 16° SW visible
21 Feb 9.3 23:28:48 10° SW 23:33:57 22° SSE 23:39:19 10° ESE visible
22 Feb 9.1 01:21:20 10° SW 01:26:17 25° SSW 01:26:17 25° SSW visible
23 Feb 9.1 00:27:43 10° SW 00:33:23 25° S 00:35:47 22° SSE visible
23 Feb 9.9 02:21:18 10° WSW 02:22:41 14° SW 02:22:41 14° SW visible
23 Feb 9.2 23:34:14 10° SW 23:39:39 24° S 23:45:18 10° ESE visible
24 Feb 9.3 01:27:24 10° WSW 01:32:11 23° SSW 01:32:11 23° SSW visible
25 Feb 9.2 00:33:39 10° SW 00:39:07 24° S 00:41:42 20° SSE visible
25 Feb 10.1 02:28:05 10° SW 02:28:36 11° SW 02:28:36 11° SW visible
25 Feb 9.2 23:40:01 10° SW 23:45:24 24° S 23:51:03 10° SE visible
26 Feb 9.5 01:33:53 10° WSW 01:38:08 18° SSW 01:38:08 18° SSW visible
